Northeast Philadelphia, PA

9:19 AM EST on December 11, 2017 (GMT -0500)
Northeast Philadelphia

Weather History for KPNE - May, 2013

Change the Weather History Date:

Wednesday, May 15, 2013

  Actual Average Record
Temperature  
Mean Temperature 62 °F -  
Max Temperature 73 °F 69 °F 87 °F (2004)
Min Temperature 52 °F 49 °F 42 °F (1999)
Degree Days  
Heating Degree Days 3    
Growing Degree Days 12 (Base 50)    
Moisture  
Dew Point 48 °F    
Average Humidity 61    
Maximum Humidity 81    
Minimum Humidity 45    
Precipitation  
Precipitation 0.00 in - - ()
Sea Level Pressure  
Sea Level Pressure 29.89 in    
Wind  
Wind Speed 4 mph (SSW)    
Max Wind Speed 10 mph    
Max Gust Speed 18 mph    
Visibility 10 miles    
Events Rain    
Averages and records for this station are not official NWS values.
T = Trace of Precipitation, MM = Missing Value Source: NWS Daily Summary

Daily Weather History Graph

Daily Weather History Graph

Search for Another Location

Airport or City:

Trip Planner

Search our weather history database for the weather conditions in past years. The results will help you decide how hot, cold, wet, or windy it might be!

Date:

Astronomy

May. 15, 2013 Rise Set
Actual Time 5:44 AM EDT 8:08 PM EDT
Civil Twilight 5:13 AM EDT 8:39 PM EDT
Nautical Twilight 4:35 AM EDT 9:17 PM EDT
Astronomical Twilight 3:53 AM EDT 10:00 PM EDT
Moon 10:17 AM EDT (5/15) No Moon Set
Length of Visible Light 15h 26m
Length of Day
14h 24m
Waxing Crescent, 26% of the Moon is Illuminated
May 15
Waxing Crescent
May 18
First Quarter
May 25
Full
May 31
Last Quarter
Jun 8
New

Hourly Weather History & Observations

Time (EDT) Temp. Dew Point Humidity Pressure Visibility Wind Dir Wind Speed Gust Speed Precip Events Conditions
12:54 AM 53.1 °F 32.0 °F 45% 30.09 in 10.0 mi Calm Calm - N/A   Mostly Cloudy
1:54 AM 54.0 °F 35.1 °F 49% 30.08 in 10.0 mi SSW 3.5 mph - N/A   Overcast
2:54 AM 54.0 °F 39.0 °F 57% 30.06 in 10.0 mi Calm Calm - N/A   Overcast
3:54 AM 53.1 °F 41.0 °F 64% 30.05 in 10.0 mi Calm Calm - N/A   Overcast
4:54 AM 52.0 °F 41.0 °F 66% 30.05 in 10.0 mi Calm Calm - N/A   Overcast
5:54 AM 53.1 °F 43.0 °F 69% 30.05 in 10.0 mi SE 3.5 mph - N/A   Overcast
6:54 AM 53.1 °F 44.1 °F 71% 30.02 in 10.0 mi SE 6.9 mph - N/A   Overcast
7:54 AM 55.9 °F 42.1 °F 60% 30.00 in 10.0 mi South 6.9 mph - N/A   Unknown
8:54 AM 57.0 °F 44.1 °F 62% 29.98 in 10.0 mi South 8.1 mph - N/A   Mostly Cloudy
9:54 AM 62.1 °F 46.0 °F 56% 29.96 in 10.0 mi Variable 4.6 mph - N/A   Mostly Cloudy
10:54 AM 63.0 °F 48.0 °F 58% 29.95 in 10.0 mi SSW 8.1 mph - N/A   Overcast
11:54 AM 66.0 °F 50.0 °F 56% 29.90 in 10.0 mi Variable 5.8 mph - N/A   Clear
12:54 PM 68.0 °F 50.0 °F 52% 29.88 in 10.0 mi SW 10.4 mph - N/A   Clear
1:54 PM 69.1 °F 52.0 °F 54% 29.86 in 10.0 mi SSW 4.6 mph - 0.00 in Rain Light Rain
2:54 PM 70.0 °F 52.0 °F 53% 29.81 in 10.0 mi South 10.4 mph 18.4 mph 0.00 in   Clear
3:54 PM 70.0 °F 54.0 °F 57% 29.75 in 10.0 mi SW 9.2 mph 18.4 mph N/A   Clear
4:54 PM 71.1 °F 54.0 °F 55% 29.75 in 10.0 mi SW 10.4 mph - N/A   Clear
5:54 PM 72.0 °F 55.9 °F 57% 29.73 in 10.0 mi SW 10.4 mph - N/A   Clear
6:54 PM 72.0 °F 55.9 °F 57% 29.73 in 10.0 mi North - - N/A   Clear
7:54 PM 71.1 °F 55.9 °F 59% 29.73 in 10.0 mi SW 6.9 mph - N/A   Clear
8:54 PM 66.9 °F 57.0 °F 70% 29.73 in 10.0 mi Calm Calm - N/A   Partly Cloudy
9:54 PM 64.9 °F 57.0 °F 75% 29.73 in 10.0 mi Calm Calm - N/A   Clear
10:54 PM 63.0 °F 57.0 °F 81% 29.73 in 10.0 mi Calm Calm - N/A   Clear
11:54 PM 64.0 °F 57.0 °F 78% 29.73 in 10.0 mi Calm Calm - N/A   Clear